| time (UTC) | temp F | wind direction | speed MPH | gust MPH | rain 1hr in | rain 24hr in | rain mn in | humidity % | barometer mb |
| 20260507192607 | 59 | 257 | 1.0 | 4.0 | 0.00 | 0.00 | 0.00 | 39 | 1014.7 |
| 20260507192127 | 58 | 31 | 0.0 | 3.0 | 0.00 | 0.00 | 0.00 | 40 | 1014.8 |
| 20260507191607 | 59 | 359 | 1.0 | 3.0 | 0.00 | 0.00 | 0.00 | 39 | 1014.9 |
| 20260507191107 | 60 | 266 | 2.0 | 4.0 | 0.00 | 0.00 | 0.00 | 39 | 1014.8 |
| 20260507190607 | 60 | 347 | 2.0 | 5.0 | 0.00 | 0.00 | 0.00 | 39 | 1014.8 |
| 20260507190107 | 60 | 334 | 2.0 | 4.0 | 0.00 | 0.00 | 0.00 | 40 | 1014.9 |
| 20260507185607 | 59 | 317 | 2.0 | 6.0 | 0.00 | 0.00 | 0.00 | 40 | 1014.9 |
| 20260507185107 | 60 | 219 | 1.0 | 6.0 | 0.00 | 0.00 | 0.00 | 40 | 1015.0 |
| 20260507184607 | 59 | 232 | 3.0 | 6.0 | 0.00 | 0.00 | 0.00 | 41 | 1014.9 |
| 20260507184107 | 59 | 235 | 3.0 | 7.0 | 0.00 | 0.00 | 0.00 | 40 | 1015.0 |
| 20260507183647 | 59 | 222 | 2.0 | 5.0 | 0.00 | 0.00 | 0.00 | 40 | 1015.0 |
| 20260507183107 | 59 | 242 | 2.0 | 5.0 | 0.00 | 0.00 | 0.00 | 39 | 1015.0 |
| 20260507182607 | 59 | 304 | 2.0 | 3.0 | 0.00 | 0.00 | 0.00 | 42 | 1015.1 |
| 20260507182107 | 58 | 47 | 1.0 | 4.0 | 0.00 | 0.00 | 0.00 | 40 | 1015.0 |
| 20260507181647 | 59 | 328 | 2.0 | 4.0 | 0.00 | 0.00 | 0.00 | 41 | 1014.9 |
| 20260507181107 | 59 | 286 | 1.0 | 6.0 | 0.00 | 0.00 | 0.00 | 42 | 1015.0 |
| 20260507180627 | 59 | 313 | 2.0 | 6.0 | 0.00 | 0.00 | 0.00 | 42 | 1015.0 |
| 20260507180107 | 59 | 343 | 2.0 | 5.0 | 0.00 | 0.00 | 0.00 | 43 | 1015.1 |
| 20260507175607 | 59 | 315 | 2.0 | 6.0 | 0.00 | 0.00 | 0.00 | 43 | 1015.1 |
| 20260507175107 | 59 | 34 | 1.0 | 3.0 | 0.00 | 0.00 | 0.00 | 43 | 1015.1 |
| 20260507174607 | 58 | 347 | 2.0 | 4.0 | 0.00 | 0.00 | 0.00 | 43 | 1015.2 |
| 20260507174107 | 58 | 358 | 1.0 | 7.0 | 0.00 | 0.00 | 0.00 | 44 | 1015.2 |
| 20260507173627 | 58 | 8 | 2.0 | 3.0 | 0.00 | 0.00 | 0.00 | 44 | 1015.3 |
| 20260507173107 | 58 | 313 | 1.0 | 5.0 | 0.00 | 0.00 | 0.00 | 42 | 1015.2 |
| 20260507172627 | 58 | 264 | 2.0 | 5.0 | 0.00 | 0.00 | 0.00 | 44 | 1015.5 |
| 20260507172207 | 58 | 272 | 3.0 | 6.0 | 0.00 | 0.00 | 0.00 | 44 | 1015.7 |
| 20260507171627 | 58 | 236 | 1.0 | 4.0 | 0.00 | 0.00 | 0.00 | 45 | 1015.8 |
| 20260507171107 | 58 | 254 | 1.0 | 6.0 | 0.00 | 0.00 | 0.00 | 47 | 1015.8 |
| 20260507170608 | 57 | 259 | 1.0 | 4.0 | 0.00 | 0.00 | 0.00 | 45 | 1015.7 |
| 20260507170107 | 58 | 241 | 2.0 | 5.0 | 0.00 | 0.00 | 0.00 | 45 | 1015.8 |
| 20260507165627 | 58 | 308 | 2.0 | 4.0 | 0.00 | 0.00 | 0.00 | 46 | 1015.7 |
| 20260507165107 | 57 | 317 | 1.0 | 4.0 | 0.00 | 0.00 | 0.00 | 45 | 1015.7 |
| 20260507164607 | 57 | 18 | 2.0 | 5.0 | 0.00 | 0.00 | 0.00 | 46 | 1015.6 |
| 20260507164107 | 57 | 136 | 2.0 | 3.0 | 0.00 | 0.00 | 0.00 | 49 | 1015.5 |
| 20260507163607 | 57 | 230 | 2.0 | 5.0 | 0.00 | 0.00 | 0.00 | 45 | 1015.9 |
| 20260507163107 | 57 | 296 | 2.0 | 4.0 | 0.00 | 0.00 | 0.00 | 46 | 1015.9 |
| 20260507162607 | 56 | 268 | 1.0 | 5.0 | 0.00 | 0.00 | 0.00 | 46 | 1016.0 |
| 20260507162107 | 56 | 37 | 1.0 | 5.0 | 0.00 | 0.00 | 0.00 | 47 | 1016.0 |
| 20260507161607 | 56 | 305 | 1.0 | 5.0 | 0.00 | 0.00 | 0.00 | 48 | 1016.0 |
| 20260507161107 | 56 | 319 | 0.0 | 5.0 | 0.00 | 0.00 | 0.00 | 47 | 1016.0 |
| 20260507160627 | 56 | 230 | 1.0 | 4.0 | 0.00 | 0.00 | 0.00 | 47 | 1015.9 |
| 20260507160107 | 56 | 205 | 0.0 | 2.0 | 0.00 | 0.00 | 0.00 | 48 | 1016.0 |
| 20260507155607 | 56 | 351 | 0.0 | 2.0 | 0.00 | 0.00 | 0.00 | 48 | 1015.9 |
| 20260507155107 | 55 | 80 | 1.0 | 4.0 | 0.00 | 0.00 | 0.00 | 48 | 1016.0 |
| 20260507154607 | 55 | 330 | 0.0 | 4.0 | 0.00 | 0.00 | 0.00 | 47 | 1016.1 |
| 20260507154107 | 55 | 181 | 0.0 | 2.0 | 0.00 | 0.00 | 0.00 | 48 | 1016.1 |
| 20260507153607 | 55 | 221 | 1.0 | 3.0 | 0.00 | 0.00 | 0.00 | 48 | 1016.0 |
| 20260507153107 | 55 | 8 | 1.0 | 3.0 | 0.00 | 0.00 | 0.00 | 50 | 1015.9 |
| 20260507152607 | 55 | 18 | 1.0 | 4.0 | 0.00 | 0.00 | 0.00 | 49 | 1015.8 |
| 20260507152107 | 55 | 89 | 1.0 | 4.0 | 0.00 | 0.00 | 0.00 | 49 | 1015.8 |
| 20260507151607 | 55 | 314 | 1.0 | 4.0 | 0.00 | 0.00 | 0.00 | 49 | 1015.8 |
| 20260507151107 | 55 | 81 | 1.0 | 3.0 | 0.00 | 0.00 | 0.00 | 51 | 1015.8 |
| 20260507150607 | 55 | 79 | 1.0 | 3.0 | 0.00 | 0.00 | 0.00 | 50 | 1015.9 |
| 20260507150107 | 54 | 47 | 1.0 | 4.0 | 0.00 | 0.00 | 0.00 | 51 | 1015.8 |
| 20260507145607 | 54 | 99 | 2.0 | 3.0 | 0.00 | 0.00 | 0.00 | 51 | 1015.7 |
| 20260507145107 | 54 | 0.0 | 3.0 | 0.00 | 0.00 | 0.00 | 51 | 1015.7 | |
| 20260507144607 | 54 | 29 | 1.0 | 4.0 | 0.00 | 0.00 | 0.00 | 52 | 1015.7 |
| 20260507144107 | 54 | 67 | 1.0 | 4.0 | 0.00 | 0.00 | 0.00 | 53 | 1015.7 |
| 20260507143607 | 53 | 25 | 2.0 | 4.0 | 0.00 | 0.00 | 0.00 | 53 | 1015.7 |
| 20260507143127 | 53 | 322 | 1.0 | 4.0 | 0.00 | 0.00 | 0.00 | 54 | 1015.7 |
| 20260507142607 | 54 | 27 | 1.0 | 4.0 | 0.00 | 0.00 | 0.00 | 57 | 1015.7 |
| 20260507142107 | 53 | 31 | 1.0 | 4.0 | 0.00 | 0.00 | 0.00 | 57 | 1015.8 |
| 20260507141607 | 54 | 67 | 2.0 | 6.0 | 0.00 | 0.00 | 0.00 | 57 | 1015.7 |
| 20260507141127 | 53 | 89 | 1.0 | 6.0 | 0.00 | 0.00 | 0.00 | 57 | 1015.7 |
| 20260507140608 | 52 | 88 | 1.0 | 5.0 | 0.00 | 0.00 | 0.00 | 59 | 1015.7 |
| 20260507140106 | 52 | 40 | 2.0 | 5.0 | 0.00 | 0.00 | 0.00 | 60 | 1015.7 |
| 20260507135626 | 52 | 61 | 2.0 | 5.0 | 0.00 | 0.00 | 0.00 | 60 | 1015.7 |
| 20260507135106 | 52 | 47 | 3.0 | 4.0 | 0.00 | 0.00 | 0.00 | 60 | 1015.7 |
| 20260507134606 | 52 | 63 | 1.0 | 3.0 | 0.00 | 0.00 | 0.00 | 61 | 1015.6 |
| 20260507134106 | 52 | 62 | 2.0 | 4.0 | 0.00 | 0.00 | 0.00 | 61 | 1015.7 |
| 20260507133607 | 52 | 55 | 1.0 | 4.0 | 0.00 | 0.00 | 0.00 | 62 | 1015.9 |
| 20260507133127 | 51 | 53 | 1.0 | 3.0 | 0.00 | 0.00 | 0.00 | 63 | 1015.8 |
| 20260507132606 | 51 | 30 | 3.0 | 5.0 | 0.00 | 0.00 | 0.00 | 63 | 1015.8 |
| 20260507132106 | 51 | 46 | 2.0 | 5.0 | 0.00 | 0.00 | 0.00 | 64 | 1015.8 |
| 20260507131607 | 51 | 63 | 2.0 | 4.0 | 0.00 | 0.00 | 0.00 | 65 | 1015.9 |
| 20260507131106 | 50 | 41 | 2.0 | 4.0 | 0.00 | 0.00 | 0.00 | 66 | 1015.8 |
| 20260507130626 | 50 | 64 | 2.0 | 4.0 | 0.00 | 0.00 | 0.00 | 67 | 1015.9 |
| 20260507130107 | 50 | 59 | 1.0 | 4.0 | 0.00 | 0.00 | 0.00 | 67 | 1015.9 |
| 20260507125607 | 49 | 55 | 3.0 | 5.0 | 0.00 | 0.00 | 0.00 | 68 | 1016.0 |
| 20260507125107 | 49 | 44 | 2.0 | 4.0 | 0.00 | 0.00 | 0.00 | 68 | 1015.9 |
| 20260507124607 | 49 | 50 | 2.0 | 5.0 | 0.00 | 0.00 | 0.00 | 70 | 1015.9 |
| 20260507124127 | 49 | 39 | 2.0 | 5.0 | 0.00 | 0.00 | 0.00 | 70 | 1016.0 |
| 20260507123627 | 49 | 63 | 2.0 | 4.0 | 0.00 | 0.00 | 0.00 | 72 | 1016.0 |
| 20260507123107 | 48 | 15 | 1.0 | 4.0 | 0.00 | 0.00 | 0.00 | 72 | 1016.0 |
| 20260507122607 | 48 | 47 | 1.0 | 4.0 | 0.00 | 0.00 | 0.00 | 72 | 1016.0 |
| 20260507122106 | 48 | 42 | 2.0 | 4.0 | 0.00 | 0.00 | 0.00 | 73 | 1016.0 |
| 20260507121607 | 48 | 75 | 1.0 | 3.0 | 0.00 | 0.00 | 0.00 | 75 | 1016.0 |
| 20260507121107 | 47 | 47 | 1.0 | 4.0 | 0.00 | 0.00 | 0.00 | 75 | 1015.8 |
| 20260507120607 | 47 | 26 | 1.0 | 3.0 | 0.00 | 0.00 | 0.00 | 76 | 1016.0 |
| 20260507120107 | 47 | 68 | 1.0 | 4.0 | 0.00 | 0.00 | 0.00 | 77 | 1015.8 |
| 20260507115607 | 47 | 52 | 1.0 | 4.0 | 0.00 | 0.00 | 0.00 | 79 | 1015.8 |
| 20260507115107 | 46 | 0.0 | 2.0 | 0.00 | 0.00 | 0.00 | 80 | 1015.7 | |
| 20260507114607 | 46 | 27 | 1.0 | 2.0 | 0.00 | 0.00 | 0.00 | 81 | 1015.7 |
| 20260507114127 | 46 | 0.0 | 1.0 | 0.00 | 0.00 | 0.00 | 82 | 1015.7 | |
| 20260507113627 | 45 | 0.0 | 1.0 | 0.00 | 0.00 | 0.00 | 83 | 1015.6 | |
| 20260507113107 | 45 | 0.0 | 1.0 | 0.00 | 0.00 | 0.00 | 84 | 1015.6 | |
| 20260507112607 | 45 | 22 | 0.0 | 2.0 | 0.00 | 0.00 | 0.00 | 85 | 1015.6 |
| 20260507112107 | 45 | 0.0 | 1.0 | 0.00 | 0.00 | 0.00 | 84 | 1015.5 | |
| 20260507111607 | 45 | 83 | 0.0 | 2.0 | 0.00 | 0.00 | 0.00 | 84 | 1015.4 |
| 20260507111106 | 44 | 64 | 1.0 | 1.0 | 0.00 | 0.00 | 0.00 | 85 | 1015.4 |
| 20260507110607 | 44 | 0.0 | 1.0 | 0.00 | 0.00 | 0.00 | 85 | 1015.3 | |
| 20260507110107 | 44 | 293 | 0.0 | 1.0 | 0.00 | 0.00 | 0.00 | 85 | 1015.2 |
| 20260507105607 | 44 | 0.0 | 1.0 | 0.00 | 0.00 | 0.00 | 85 | 1015.2 | |
| 20260507105107 | 45 | 0.0 | 1.0 | 0.00 | 0.00 | 0.00 | 85 | 1015.0 | |
| 20260507104607 | 45 | 0.0 | 1.0 | 0.00 | 0.00 | 0.00 | 84 | 1015.1 | |
| 20260507104106 | 45 | 0.0 | 1.0 | 0.00 | 0.00 | 0.00 | 84 | 1015.0 | |
| 20260507103606 | 45 | 0.0 | 1.0 | 0.00 | 0.00 | 0.00 | 84 | 1015.1 | |
| 20260507103107 | 45 | 0.0 | 1.0 | 0.00 | 0.00 | 0.00 | 84 | 1015.0 | |
| 20260507102606 | 45 | 0.0 | 1.0 | 0.00 | 0.00 | 0.00 | 83 | 1014.8 | |
| 20260507102106 | 46 | 31 | 0.0 | 1.0 | 0.00 | 0.00 | 0.00 | 83 | 1015.0 |
| 20260507101607 | 46 | 163 | 0.0 | 1.0 | 0.00 | 0.00 | 0.00 | 84 | 1015.0 |
| 20260507101107 | 46 | 0.0 | 1.0 | 0.00 | 0.00 | 0.00 | 84 | 1015.0 | |
| 20260507100607 | 46 | 336 | 0.0 | 2.0 | 0.00 | 0.00 | 0.00 | 84 | 1015.0 |
| 20260507100147 | 46 | 0.0 | 1.0 | 0.00 | 0.00 | 0.00 | 84 | 1015.0 | |
| 20260507095606 | 46 | 0.0 | 1.0 | 0.00 | 0.00 | 0.00 | 85 | 1015.0 | |
| 20260507095127 | 46 | 0.0 | 1.0 | 0.00 | 0.00 | 0.00 | 85 | 1014.9 | |
| 20260507094607 | 46 | 137 | 0.0 | 1.0 | 0.00 | 0.00 | 0.00 | 86 | 1014.9 |
| 20260507094107 | 46 | 0.0 | 1.0 | 0.00 | 0.00 | 0.00 | 87 | 1015.1 | |
| 20260507093607 | 46 | 0.0 | 1.0 | 0.00 | 0.00 | 0.00 | 86 | 1015.0 | |
| 20260507093107 | 46 | 0.0 | 1.0 | 0.00 | 0.00 | 0.00 | 86 | 1015.0 | |
| 20260507092606 | 46 | 0.0 | 1.0 | 0.00 | 0.00 | 0.00 | 85 | 1015.0 | |
| 20260507092107 | 46 | 0.0 | 1.0 | 0.00 | 0.00 | 0.00 | 86 | 1014.9 | |
| 20260507091627 | 46 | 0.0 | 2.0 | 0.00 | 0.00 | 0.00 | 87 | 1015.0 | |
| 20260507091106 | 46 | 0.0 | 2.0 | 0.00 | 0.00 | 0.00 | 87 | 1015.0 | |
| 20260507090607 | 47 | 0.0 | 1.0 | 0.00 | 0.00 | 0.00 | 87 | 1015.1 | |
| 20260507090106 | 47 | 0.0 | 1.0 | 0.00 | 0.00 | 0.00 | 86 | 1015.1 | |
| 20260507085607 | 47 | 0.0 | 2.0 | 0.00 | 0.00 | 0.00 | 85 | 1015.0 | |
| 20260507085127 | 47 | 0.0 | 2.0 | 0.00 | 0.00 | 0.00 | 85 | 1014.9 | |
| 20260507084626 | 47 | 0.0 | 1.0 | 0.00 | 0.00 | 0.00 | 84 | 1014.8 | |
| 20260507084108 | 47 | 0.0 | 2.0 | 0.00 | 0.00 | 0.00 | 84 | 1014.9 | |
| 20260507083607 | 47 | 118 | 1.0 | 2.0 | 0.00 | 0.00 | 0.00 | 84 | 1014.8 |
| 20260507083107 | 47 | 359 | 0.0 | 1.0 | 0.00 | 0.00 | 0.00 | 83 | 1014.9 |
| 20260507082607 | 48 | 0.0 | 1.0 | 0.00 | 0.00 | 0.00 | 81 | 1014.9 | |
| 20260507082107 | 48 | 42 | 0.0 | 1.0 | 0.00 | 0.00 | 0.00 | 80 | 1014.8 |
| 20260507081607 | 48 | 0.0 | 2.0 | 0.00 | 0.00 | 0.00 | 80 | 1014.7 | |
| 20260507081107 | 48 | 0.0 | 2.0 | 0.00 | 0.00 | 0.00 | 80 | 1014.7 | |
| 20260507080606 | 48 | 314 | 0.0 | 2.0 | 0.00 | 0.00 | 0.00 | 79 | 1014.6 |
| 20260507080106 | 48 | 0.0 | 1.0 | 0.00 | 0.00 | 0.00 | 79 | 1014.6 | |
| 20260507075606 | 49 | 56 | 0.0 | 2.0 | 0.00 | 0.00 | 0.00 | 78 | 1014.8 |
| 20260507075126 | 49 | 181 | 1.0 | 3.0 | 0.00 | 0.00 | 0.00 | 78 | 1014.6 |
| 20260507074606 | 49 | 203 | 0.0 | 2.0 | 0.00 | 0.00 | 0.00 | 78 | 1014.6 |
| 20260507074126 | 49 | 244 | 0.0 | 1.0 | 0.00 | 0.00 | 0.00 | 77 | 1014.4 |
| 20260507073606 | 49 | 113 | 0.0 | 2.0 | 0.00 | 0.00 | 0.00 | 77 | 1014.6 |
| 20260507073106 | 49 | 300 | 0.0 | 2.0 | 0.00 | 0.00 | 0.00 | 77 | 1014.5 |
| 20260507072606 | 49 | 345 | 2.0 | 3.0 | 0.00 | 0.00 | 0.00 | 76 | 1014.6 |
| 20260507072126 | 49 | 70 | 1.0 | 3.0 | 0.00 | 0.00 | 0.00 | 76 | 1014.5 |
| 20260507071626 | 49 | 91 | 1.0 | 3.0 | 0.00 | 0.00 | 0.00 | 76 | 1014.4 |
| 20260507071106 | 50 | 0.0 | 3.0 | 0.00 | 0.00 | 0.00 | 76 | 1014.5 | |
| 20260507070626 | 50 | 18 | 1.0 | 3.0 | 0.00 | 0.00 | 0.00 | 75 | 1014.6 |
| 20260507070106 | 50 | 205 | 1.0 | 3.0 | 0.00 | 0.00 | 0.00 | 75 | 1014.5 |
| 20260507065606 | 50 | 69 | 1.0 | 2.0 | 0.00 | 0.00 | 0.00 | 75 | 1014.5 |
| 20260507065106 | 50 | 110 | 0.0 | 2.0 | 0.00 | 0.00 | 0.00 | 75 | 1014.6 |
| 20260507064606 | 50 | 6 | 1.0 | 2.0 | 0.00 | 0.00 | 0.00 | 75 | 1014.8 |
| 20260507064126 | 50 | 319 | 2.0 | 3.0 | 0.00 | 0.00 | 0.00 | 75 | 1014.7 |
| 20260507063628 | 50 | 20 | 1.0 | 2.0 | 0.00 | 0.00 | 0.00 | 75 | 1014.8 |
| 20260507063106 | 51 | 108 | 1.0 | 3.0 | 0.00 | 0.00 | 0.00 | 75 | 1014.8 |
| 20260507062606 | 51 | 49 | 1.0 | 2.0 | 0.00 | 0.00 | 0.00 | 76 | 1014.8 |
| 20260507062106 | 51 | 194 | 0.0 | 2.0 | 0.00 | 0.00 | 0.00 | 75 | 1015.0 |
| 20260507061606 | 51 | 102 | 1.0 | 2.0 | 0.00 | 0.00 | 0.00 | 73 | 1015.1 |
| 20260507061106 | 51 | 132 | 1.0 | 3.0 | 0.00 | 0.00 | 0.00 | 71 | 1015.0 |
| 20260507060606 | 51 | 0.0 | 2.0 | 0.00 | 0.00 | 0.00 | 71 | 1015.0 | |
| 20260507060106 | 51 | 0.0 | 2.0 | 0.00 | 0.00 | 0.00 | 72 | 1015.0 | |
| 20260507055626 | 51 | 135 | 2.0 | 3.0 | 0.00 | 0.00 | 0.00 | 71 | 1015.0 |
| 20260507055106 | 51 | 142 | 1.0 | 3.0 | 0.00 | 0.00 | 0.00 | 71 | 1014.9 |
| 20260507054606 | 52 | 23 | 1.0 | 3.0 | 0.00 | 0.00 | 0.00 | 71 | 1014.8 |
| 20260507054106 | 52 | 316 | 1.0 | 2.0 | 0.00 | 0.00 | 0.00 | 71 | 1014.8 |
| 20260507053626 | 52 | 0.0 | 2.0 | 0.00 | 0.00 | 0.00 | 72 | 1014.9 | |
| 20260507053106 | 52 | 52 | 1.0 | 3.0 | 0.00 | 0.00 | 0.00 | 71 | 1015.0 |
| 20260507052626 | 52 | 33 | 1.0 | 2.0 | 0.00 | 0.00 | 0.00 | 71 | 1014.9 |
| 20260507052106 | 52 | 158 | 1.0 | 3.0 | 0.00 | 0.00 | 0.00 | 71 | 1015.0 |
| 20260507051606 | 52 | 101 | 1.0 | 4.0 | 0.00 | 0.00 | 0.00 | 71 | 1014.8 |
| 20260507051110 | 52 | 0.0 | 2.0 | 0.00 | 0.00 | 0.00 | 72 | 1014.9 | |
| 20260507050606 | 52 | 0.0 | 2.0 | 0.00 | 0.00 | 0.00 | 72 | 1015.0 | |
| 20260507050106 | 52 | 233 | 1.0 | 2.0 | 0.00 | 0.00 | 0.00 | 72 | 1014.8 |
| 20260507045606 | 52 | 118 | 1.0 | 2.0 | 0.00 | 0.00 | 0.00 | 71 | 1015.2 |
| 20260507045106 | 52 | 165 | 1.0 | 2.0 | 0.00 | 0.00 | 0.00 | 71 | 1015.3 |
| 20260507044606 | 52 | 333 | 0.0 | 2.0 | 0.00 | 0.00 | 0.00 | 71 | 1015.2 |
| 20260507044106 | 52 | 0.0 | 2.0 | 0.00 | 0.00 | 0.00 | 71 | 1015.1 | |
| 20260507043606 | 52 | 0.0 | 0.0 | 0.00 | 0.00 | 0.00 | 71 | 1015.1 | |
| 20260507043106 | 53 | 0.0 | 1.0 | 0.00 | 0.00 | 0.00 | 71 | 1015.3 | |
| 20260507042646 | 53 | 114 | 0.0 | 2.0 | 0.00 | 0.00 | 0.00 | 72 | 1015.2 |
| 20260507042106 | 53 | 0.0 | 3.0 | 0.00 | 0.00 | 0.00 | 71 | 1015.1 | |
| 20260507041606 | 53 | 351 | 0.0 | 3.0 | 0.00 | 0.00 | 0.00 | 72 | 1015.1 |
| 20260507041106 | 53 | 0.0 | 2.0 | 0.00 | 0.00 | 0.00 | 72 | 1015.2 | |
| 20260507040626 | 53 | 0.0 | 1.0 | 0.00 | 0.00 | 0.00 | 72 | 1015.2 | |
| 20260507040107 | 53 | 0.0 | 1.0 | 0.00 | 0.00 | 0.00 | 72 | 1015.2 | |
| 20260507035607 | 53 | 0.0 | 2.0 | 0.00 | 0.00 | 0.00 | 72 | 1015.2 | |
| 20260507035107 | 53 | 21 | 0.0 | 2.0 | 0.00 | 0.00 | 0.00 | 72 | 1015.3 |
| 20260507034627 | 53 | 0.0 | 1.0 | 0.00 | 0.00 | 0.00 | 73 | 1015.3 | |
| 20260507034107 | 53 | 0.0 | 1.0 | 0.00 | 0.00 | 0.00 | 73 | 1015.4 | |
| 20260507033607 | 53 | 347 | 0.0 | 2.0 | 0.00 | 0.00 | 0.00 | 73 | 1015.5 |
| 20260507033107 | 53 | 0.0 | 0.0 | 0.00 | 0.00 | 0.00 | 74 | 1015.4 | |
| 20260507032627 | 53 | 0.0 | 1.0 | 0.00 | 0.00 | 0.00 | 74 | 1015.4 | |
| 20260507032107 | 53 | 53 | 0.0 | 1.0 | 0.00 | 0.00 | 0.00 | 75 | 1015.6 |
| 20260507031607 | 53 | 0.0 | 1.0 | 0.00 | 0.00 | 0.00 | 76 | 1015.3 | |
| 20260507031107 | 53 | 0.0 | 0.0 | 0.00 | 0.00 | 0.00 | 76 | 1015.3 | |
| 20260507030607 | 53 | 0.0 | 1.0 | 0.00 | 0.00 | 0.00 | 76 | 1015.3 | |
| 20260507030106 | 53 | 0.0 | 1.0 | 0.00 | 0.00 | 0.00 | 78 | 1015.2 | |
| 20260507025606 | 53 | 0.0 | 1.0 | 0.00 | 0.00 | 0.00 | 78 | 1015.2 | |
| 20260507025126 | 53 | 0.0 | 0.0 | 0.00 | 0.00 | 0.00 | 78 | 1015.3 | |
| 20260507024606 | 53 | 0.0 | 0.0 | 0.00 | 0.00 | 0.00 | 78 | 1015.2 | |
| 20260507024106 | 54 | 0.0 | 1.0 | 0.00 | 0.00 | 0.00 | 78 | 1014.8 | |
| 20260507023606 | 54 | 0.0 | 1.0 | 0.00 | 0.00 | 0.00 | 75 | 1014.8 | |
| 20260507023106 | 54 | 0.0 | 0.0 | 0.00 | 0.00 | 0.00 | 75 | 1014.6 | |
| 20260507022606 | 54 | 0.0 | 0.0 | 0.00 | 0.00 | 0.00 | 75 | 1014.4 | |
| 20260507022106 | 54 | 0.0 | 1.0 | 0.00 | 0.00 | 0.00 | 77 | 1014.1 | |
| 20260507021606 | 54 | 0.0 | 1.0 | 0.00 | 0.00 | 0.00 | 77 | 1014.1 | |
| 20260507021106 | 54 | 0.0 | 1.0 | 0.00 | 0.00 | 0.00 | 77 | 1014.3 | |
| 20260507020606 | 54 | 0.0 | 1.0 | 0.00 | 0.00 | 0.00 | 77 | 1014.1 | |
| 20260507020106 | 54 | 0.0 | 0.0 | 0.00 | 0.00 | 0.00 | 77 | 1014.2 | |
| 20260507015626 | 54 | 0.0 | 1.0 | 0.00 | 0.00 | 0.00 | 77 | 1014.1 | |
| 20260507015106 | 54 | 0.0 | 0.0 | 0.00 | 0.00 | 0.00 | 78 | 1014.1 | |
| 20260507014626 | 54 | 0.0 | 0.0 | 0.00 | 0.00 | 0.00 | 79 | 1014.1 | |
| 20260507014106 | 54 | 0.0 | 0.0 | 0.00 | 0.00 | 0.00 | 80 | 1014.0 | |
| 20260507013626 | 54 | 0.0 | 0.0 | 0.00 | 0.00 | 0.00 | 80 | 1014.1 | |
| 20260507013106 | 54 | 0.0 | 0.0 | 0.00 | 0.00 | 0.00 | 80 | 1014.3 | |
| 20260507012606 | 54 | 0.0 | 0.0 | 0.00 | 0.00 | 0.00 | 80 | 1014.3 | |
| 20260507012106 | 54 | 0.0 | 0.0 | 0.00 | 0.00 | 0.00 | 80 | 1014.3 | |
| 20260507011626 | 54 | 0.0 | 0.0 | 0.00 | 0.00 | 0.00 | 81 | 1014.4 | |
| 20260507010606 | 55 | 0.0 | 0.0 | 0.00 | 0.00 | 0.00 | 83 | 1014.1 | |
| 20260507010106 | 55 | 0.0 | 1.0 | 0.00 | 0.00 | 0.00 | 83 | 1014.7 | |
| 20260507005607 | 55 | 0.0 | 1.0 | 0.00 | 0.00 | 0.00 | 85 | 1014.7 | |
| 20260507005127 | 55 | 0.0 | 0.0 | 0.00 | 0.00 | 0.00 | 85 | 1014.4 | |
| 20260507004626 | 55 | 0.0 | 0.0 | 0.00 | 0.00 | 0.00 | 85 | 1014.3 | |
| 20260507004127 | 55 | 0.0 | 0.0 | 0.00 | 0.00 | 0.00 | 85 | 1014.2 | |
| 20260507003607 | 55 | 0.0 | 0.0 | 0.00 | 0.00 | 0.00 | 84 | 1014.4 | |
| 20260507003107 | 55 | 0.0 | 1.0 | 0.00 | 0.00 | 0.00 | 84 | 1014.5 | |
| 20260507002607 | 55 | 0.0 | 0.0 | 0.00 | 0.00 | 0.00 | 85 | 1014.4 | |
| 20260507002106 | 55 | 0.0 | 0.0 | 0.00 | 0.00 | 0.00 | 84 | 1013.8 | |
| 20260507001607 | 55 | 0.0 | 0.0 | 0.00 | 0.00 | 0.00 | 84 | 1013.4 | |
| 20260507001107 | 55 | 0.0 | 0.0 | 0.00 | 0.00 | 0.00 | 84 | 1013.7 | |
| 20260507000607 | 55 | 0.0 | 1.0 | 0.00 | 0.00 | 0.00 | 83 | 1014.1 | |
| 20260507000107 | 56 | 123 | 0.0 | 1.0 | 0.00 | 0.00 | 0.00 | 83 | 1014.1 |
| 20260506235607 | 55 | 0.0 | 1.0 | 0.00 | 0.00 | 0.00 | 83 | 1013.9 | |
| 20260506235106 | 56 | 0.0 | 0.0 | 0.00 | 0.00 | 0.00 | 82 | 1013.7 | |
| 20260506234607 | 56 | 0.0 | 1.0 | 0.00 | 0.00 | 0.00 | 81 | 1013.4 | |
| 20260506234106 | 56 | 0.0 | 1.0 | 0.00 | 0.00 | 0.00 | 80 | 1013.5 | |
| 20260506233607 | 56 | 0.0 | 0.0 | 0.00 | 0.00 | 0.00 | 81 | 1013.3 | |
| 20260506233127 | 56 | 0.0 | 2.0 | 0.00 | 0.00 | 0.00 | 80 | 1013.4 | |
| 20260506232607 | 56 | 35 | 1.0 | 2.0 | 0.00 | 0.00 | 0.00 | 80 | 1013.9 |
| 20260506232107 | 56 | 216 | 0.0 | 2.0 | 0.00 | 0.00 | 0.00 | 80 | 1014.1 |
| 20260506231627 | 57 | 0.0 | 1.0 | 0.00 | 0.00 | 0.00 | 78 | 1013.5 | |
| 20260506231106 | 57 | 0.0 | 0.0 | 0.00 | 0.00 | 0.00 | 78 | 1012.6 | |
| 20260506230607 | 57 | 0.0 | 0.0 | 0.00 | 0.00 | 0.00 | 78 | 1012.6 | |
| 20260506230127 | 57 | 0.0 | 0.0 | 0.00 | 0.00 | 0.00 | 79 | 1012.6 | |
| 20260506225607 | 57 | 0.0 | 0.0 | 0.00 | 0.00 | 0.00 | 78 | 1012.8 | |
| 20260506225107 | 57 | 0.0 | 1.0 | 0.00 | 0.00 | 0.00 | 76 | 1013.3 | |
| 20260506224607 | 57 | 0.0 | 2.0 | 0.00 | 0.00 | 0.00 | 75 | 1013.9 | |
| 20260506224107 | 57 | 64 | 0.0 | 2.0 | 0.00 | 0.00 | 0.00 | 76 | 1013.8 |
| 20260506223627 | 57 | 0.0 | 1.0 | 0.00 | 0.00 | 0.00 | 74 | 1013.3 | |
| 20260506223107 | 58 | 26 | 0.0 | 2.0 | 0.00 | 0.00 | 0.00 | 75 | 1013.0 |
| 20260506222627 | 58 | 0.0 | 2.0 | 0.00 | 0.00 | 0.00 | 74 | 1012.9 | |
| 20260506222107 | 58 | 0.0 | 1.0 | 0.00 | 0.00 | 0.00 | 75 | 1012.7 | |
| 20260506221607 | 58 | 0.0 | 0.0 | 0.00 | 0.00 | 0.00 | 75 | 1012.7 | |
| 20260506221107 | 58 | 31 | 0.0 | 2.0 | 0.00 | 0.00 | 0.00 | 75 | 1012.7 |
| 20260506220627 | 58 | 35 | 0.0 | 1.0 | 0.00 | 0.00 | 0.00 | 75 | 1012.7 |
| 20260506220106 | 58 | 21 | 0.0 | 2.0 | 0.00 | 0.00 | 0.00 | 75 | 1012.8 |
| 20260506215606 | 57 | 0.0 | 2.0 | 0.00 | 0.00 | 0.00 | 76 | 1012.9 | |
| 20260506215126 | 58 | 308 | 1.0 | 2.0 | 0.00 | 0.00 | 0.00 | 76 | 1013.2 |
| 20260506214606 | 58 | 36 | 0.0 | 2.0 | 0.00 | 0.00 | 0.00 | 76 | 1013.2 |
| 20260506214106 | 58 | 0.0 | 0.0 | 0.00 | 0.00 | 0.00 | 77 | 1013.4 | |
| 20260506213606 | 57 | 0.0 | 2.0 | 0.00 | 0.00 | 0.00 | 77 | 1013.3 | |
| 20260506213106 | 57 | 0.0 | 1.0 | 0.00 | 0.00 | 0.00 | 77 | 1013.3 | |
| 20260506212606 | 57 | 0.0 | 2.0 | 0.00 | 0.00 | 0.00 | 76 | 1013.3 | |
| 20260506212106 | 57 | 0.0 | 1.0 | 0.00 | 0.00 | 0.00 | 77 | 1013.1 | |
| 20260506211646 | 58 | 227 | 0.0 | 2.0 | 0.00 | 0.00 | 0.00 | 76 | 1013.0 |
| 20260506211106 | 58 | 121 | 0.0 | 2.0 | 0.00 | 0.00 | 0.00 | 75 | 1013.0 |
| 20260506210524 | 58 | 252 | 0.0 | 2.0 | 0.00 | 0.00 | 0.00 | 74 | 1012.8 |
| 20260506210107 | 58 | 233 | 1.0 | 3.0 | 0.00 | 0.00 | 0.00 | 74 | 1012.9 |
| 20260506205608 | 58 | 235 | 0.0 | 2.0 | 0.00 | 0.00 | 0.00 | 73 | 1012.9 |
| 20260506205107 | 58 | 25 | 0.0 | 2.0 | 0.00 | 0.00 | 0.00 | 72 | 1012.8 |
| 20260506204627 | 58 | 55 | 0.0 | 2.0 | 0.00 | 0.00 | 0.00 | 73 | 1012.8 |
| 20260506204147 | 58 | 224 | 1.0 | 2.0 | 0.00 | 0.00 | 0.00 | 74 | 1012.9 |
| 20260506203607 | 58 | 40 | 1.0 | 2.0 | 0.00 | 0.00 | 0.00 | 74 | 1013.0 |
| 20260506203107 | 58 | 47 | 2.0 | 3.0 | 0.00 | 0.00 | 0.00 | 74 | 1012.8 |
| 20260506202607 | 58 | 44 | 0.0 | 2.0 | 0.00 | 0.00 | 0.00 | 74 | 1013.1 |
| 20260506202107 | 58 | 16 | 0.0 | 2.0 | 0.00 | 0.00 | 0.00 | 75 | 1013.2 |
| 20260506201607 | 58 | 234 | 1.0 | 2.0 | 0.00 | 0.00 | 0.00 | 76 | 1013.3 |
| 20260506201107 | 58 | 143 | 0.0 | 2.0 | 0.00 | 0.00 | 0.00 | 75 | 1013.2 |
| 20260506200607 | 58 | 0.0 | 1.0 | 0.00 | 0.00 | 0.00 | 74 | 1013.2 | |
| 20260506200147 | 58 | 0.0 | 1.0 | 0.00 | 0.00 | 0.00 | 76 | 1013.5 | |
| 20260506195607 | 58 | 0.0 | 1.0 | 0.00 | 0.00 | 0.00 | 77 | 1013.5 | |
| 20260506195107 | 57 | 55 | 1.0 | 2.0 | 0.00 | 0.00 | 0.00 | 76 | 1013.5 |
| 20260506194607 | 57 | 0.0 | 2.0 | 0.00 | 0.00 | 0.00 | 78 | 1013.5 | |
| 20260506194107 | 57 | 0.0 | 0.0 | 0.00 | 0.00 | 0.00 | 78 | 1013.5 | |
| 20260506193607 | 57 | 184 | 0.0 | 3.0 | 0.00 | 0.00 | 0.00 | 78 | 1013.5 |
| 20260506193126 | 57 | 261 | 1.0 | 3.0 | 0.00 | 0.00 | 0.00 | 79 | 1013.4 |